"Pseudo-MPEC" for P12oVRq

Created 2026 Aug 17 15:35:07 UT using Find_Orb

Click here for an explanation of pseudo-MPECs

 
 Astrometry: 
     P12oVRq 0C2026 07 19.49780121 06 40.430-25 46 11.98   ~87EK 22.02wXNEOCPF51
     P12oVRq 0C2026 07 19.50711721 06 39.819-25 46 25.40   ~87EK 22.07wXNEOCPF51
     P12oVRq 0C2026 07 19.52671421 06 38.609-25 46 52.75   ~87EK 21.58wXNEOCPF51
     P12oVRq*0C2026 08 07.38303420 44 04.726-32 54 20.36   ~87BZ 21.82wXNEOCPF51
     P12oVRq 0C2026 08 07.39346320 44 03.867-32 54 32.93   ~87BZ 21.83wXNEOCPF51
     P12oVRq 0C2026 08 07.40389120 44 03.032-32 54 45.83   ~87BZ 22.23wXNEOCPF51
     P12oVRq 0C2026 08 07.41450720 44 02.152-32 54 58.76   ~87BZ 21.77wXNEOCPF51

Station data:
(F51) Pan-STARRS 1, Haleakala  (N20.707234 W156.255910)  US/Hawaii.
   Observers J. Herman, T. Lowe, P. Minguez, A. Schultz, I. Smith. Measurers
   K. Chambers, T. de Boer, J. Fairlamb, H. Gao, M. Huber, C.-C. Lin, E.
   Magnier, Y. Ramanjooloo, R. Wainscoat, R. Weryk. 1.8-m Ritchey-Chrétien +
   CCD.

Orbital elements:  P12oVRq
   Perihelion 2027 Jul 29.758766 +/- 49.2 TT = 18:12:37.3 (JD 2461616.258766)
Epoch 2026 Aug  7.0 TT = JDT 2461259.5   Earth MOID: 0.7103   Ma: 0.0679
M 220.292655338 +/- 13              (J2000 ecliptic)             AutoNEOCP
n   0.391601715 +/- 0.0249          Peri.  342.297273 +/- 10
a   1.850289392 +/- 0.0785          Node   114.495475 +/- 1.4
e   0.08727022 +/- 0.0144           Incl.   25.233156 +/- 3.6
P   2.517/919.284d         H 19.71  G  0.15   U 10.3
q 1.688814219 +/- 0.0628    Q 2.011764566 +/- 0.101
From 7 observations 2026 July 19-Aug. 7; mean residual 0".12
Residuals in arcseconds: 
260719 F51  .05+  .07+    260807 F51  .07-  .13-    260807 F51  .04+  .04+    
260719 F51  .23-  .19-    260807 F51  .11-  .10+    
260719 F51  .19+  .11+    260807 F51  .15+  .02-    

Ephemerides (geocentric):
Date (UTC) HH   RA             Dec           delta  r     elong  mag " sig PA
---- --------  ------------   ------------  ------ ------ -----  --- --------
2026 08 17 16  20 31 14.011   -36 01 17.25  1.0211 1.9718 151.7 22.0  152  11
2026 08 17 17  20 31 11.114   -36 01 56.81  1.0213 1.9718 151.7 22.0  153  11
2026 08 17 18  20 31 08.220   -36 02 36.32  1.0215 1.9718 151.6 22.0  154  11
2026 08 17 19  20 31 05.328   -36 03 15.79  1.0217 1.9717 151.6 22.0  155  11
2026 08 17 20  20 31 02.439   -36 03 55.20  1.0218 1.9717 151.5 22.0  156  11
2026 08 17 21  20 30 59.553   -36 04 34.56  1.0220 1.9717 151.5 22.0  157  12
2026 08 17 22  20 30 56.669   -36 05 13.87  1.0222 1.9717 151.4 22.0  158  12
2026 08 17 23  20 30 53.787   -36 05 53.14  1.0224 1.9716 151.4 22.0  159  12
2026 08 18 00  20 30 50.909   -36 06 32.35  1.0226 1.9716 151.3 22.0  160  12
2026 08 18 01  20 30 48.033   -36 07 11.51  1.0228 1.9716 151.3 22.0  161  12
2026 08 18 02  20 30 45.159   -36 07 50.62  1.0230 1.9715 151.2 22.0  162  12
2026 08 18 03  20 30 42.289   -36 08 29.68  1.0232 1.9715 151.2 22.0  163  12
2026 08 18 04  20 30 39.420   -36 09 08.69  1.0234 1.9715 151.1 22.0  164  12
2026 08 18 05  20 30 36.555   -36 09 47.65  1.0236 1.9715 151.1 22.0  165  12
2026 08 18 06  20 30 33.692   -36 10 26.56  1.0238 1.9714 151.1 22.0  166  12
2026 08 18 07  20 30 30.832   -36 11 05.42  1.0240 1.9714 151.0 22.0  168  12
2026 08 18 08  20 30 27.975   -36 11 44.23  1.0241 1.9714 151.0 22.0  169  12
2026 08 18 09  20 30 25.120   -36 12 22.99  1.0243 1.9713 150.9 22.0  170  12
2026 08 18 10  20 30 22.268   -36 13 01.70  1.0245 1.9713 150.9 22.1  171  13
2026 08 18 11  20 30 19.419   -36 13 40.36  1.0247 1.9713 150.8 22.1  172  13
2026 08 18 12  20 30 16.573   -36 14 18.97  1.0249 1.9713 150.8 22.1  173  13
2026 08 18 13  20 30 13.729   -36 14 57.53  1.0251 1.9712 150.7 22.1  174  13
2026 08 18 14  20 30 10.888   -36 15 36.03  1.0253 1.9712 150.7 22.1  175  13
2026 08 18 15  20 30 08.050   -36 16 14.49  1.0255 1.9712 150.6 22.1  176  13
2026 08 18 16  20 30 05.214   -36 16 52.90  1.0257 1.9711 150.6 22.1  177  13
2026 08 18 17  20 30 02.382   -36 17 31.26  1.0259 1.9711 150.5 22.1  178  13
2026 08 18 18  20 29 59.552   -36 18 09.56  1.0261 1.9711 150.5 22.1  180  13
2026 08 18 19  20 29 56.724   -36 18 47.82  1.0263 1.9711 150.4 22.1  181  13
2026 08 18 20  20 29 53.900   -36 19 26.02  1.0265 1.9710 150.4 22.1  182  13
2026 08 18 21  20 29 51.079   -36 20 04.18  1.0267 1.9710 150.4 22.1  183  13
2026 08 18 22  20 29 48.260   -36 20 42.28  1.0269 1.9710 150.3 22.1  184  13
2026 08 18 23  20 29 45.444   -36 21 20.34  1.0271 1.9709 150.3 22.1  185  14
2026 08 19 00  20 29 42.631   -36 21 58.34  1.0273 1.9709 150.2 22.1  186  14
2026 08 19 01  20 29 39.821   -36 22 36.30  1.0275 1.9709 150.2 22.1  187  14
2026 08 19 02  20 29 37.013   -36 23 14.20  1.0277 1.9709 150.1 22.1  189  14
2026 08 19 03  20 29 34.209   -36 23 52.05  1.0279 1.9708 150.1 22.1  190  14
2026 08 19 04  20 29 31.407   -36 24 29.86  1.0281 1.9708 150.0 22.1  191  14
2026 08 19 05  20 29 28.608   -36 25 07.61  1.0283 1.9708 150.0 22.1  192  14
2026 08 19 06  20 29 25.812   -36 25 45.31  1.0285 1.9707 149.9 22.1  193  14
2026 08 19 07  20 29 23.019   -36 26 22.96  1.0287 1.9707 149.9 22.1  194  14
2026 08 19 08  20 29 20.229   -36 27 00.56  1.0289 1.9707 149.8 22.1  196  14
2026 08 19 09  20 29 17.441   -36 27 38.11  1.0291 1.9707 149.8 22.1  197  14
2026 08 19 10  20 29 14.657   -36 28 15.61  1.0293 1.9706 149.7 22.1  198  14
2026 08 19 11  20 29 11.876   -36 28 53.06  1.0295 1.9706 149.7 22.1  199  14
2026 08 19 12  20 29 09.097   -36 29 30.46  1.0297 1.9706 149.7 22.1  200  14
2026 08 19 13  20 29 06.321   -36 30 07.81  1.0299 1.9705 149.6 22.1  201  15
2026 08 19 14  20 29 03.549   -36 30 45.10  1.0301 1.9705 149.6 22.1  203  15
2026 08 19 15  20 29 00.779   -36 31 22.35  1.0303 1.9705 149.5 22.1  204  15